TimeEDT,TemperatureF,Dew PointF,Humidity,Sea Level PressureIn,VisibilityMPH,Wind Direction,Wind SpeedMPH,Gust SpeedMPH,PrecipitationIn,Events,Conditions,WindDirDegrees,DateUTC
12:53 AM,73.9,71.1,91,29.87,10.0,SW,8.1,-,N/A,,Overcast,230,2013-09-03 04:53:00
1:03 AM,73.4,71.6,94,29.90,10.0,SSW,6.9,-,N/A,,Mostly Cloudy,210,2013-09-03 05:03:00
1:10 AM,73.4,71.6,94,29.90,10.0,SW,5.8,-,N/A,,Overcast,220,2013-09-03 05:10:00
1:53 AM,73.9,71.1,91,29.86,10.0,SW,5.8,-,N/A,,Overcast,230,2013-09-03 05:53:00
2:53 AM,73.9,71.1,91,29.86,10.0,SSW,5.8,-,N/A,,Overcast,210,2013-09-03 06:53:00
3:53 AM,73.9,70.0,87,29.84,10.0,Calm,Calm,-,0.00,Rain-Thunderstorm,Light Thunderstorms and Rain,0,2013-09-03 07:53:00
4:14 AM,71.6,66.2,83,29.93,2.0,North,18.4,29.9,0.00,Rain-Thunderstorm,Heavy Thunderstorms and Rain,360,2013-09-03 08:14:00
4:15 AM,69.8,66.2,88,29.92,1.0,North,18.4,29.9,0.00,Rain-Thunderstorm,Heavy Thunderstorms and Rain,350,2013-09-03 08:15:00
4:17 AM,69.8,66.2,88,29.91,0.5,North,16.1,28.8,0.02,Fog-Rain-Thunderstorm,Heavy Thunderstorms and Rain,10,2013-09-03 08:17:00
4:18 AM,68.0,66.2,94,29.90,0.5,NNE,16.1,28.8,0.03,Fog-Rain-Thunderstorm,Heavy Thunderstorms and Rain,30,2013-09-03 08:18:00
4:21 AM,66.2,66.2,100,29.89,0.5,ENE,19.6,25.3,0.33,Fog-Rain-Thunderstorm,Heavy Thunderstorms and Rain,60,2013-09-03 08:21:00
4:29 AM,66.2,66.2,100,29.90,1.0,ENE,13.8,27.6,1.04,Rain-Thunderstorm,Heavy Thunderstorms and Rain,70,2013-09-03 08:29:00
4:33 AM,66.2,66.2,100,29.91,2.5,NE,10.4,27.6,1.13,Rain-Thunderstorm,Thunderstorms and Rain,50,2013-09-03 08:33:00
4:38 AM,66.2,66.2,100,29.92,4.0,ENE,6.9,-,1.17,Rain-Thunderstorm,Thunderstorms and Rain,60,2013-09-03 08:38:00
4:53 AM,66.9,66.0,97,29.89,4.0,ESE,6.9,-,1.18,Rain-Thunderstorm,Light Thunderstorms and Rain,120,2013-09-03 08:53:00
5:05 AM,66.2,64.4,94,29.93,10.0,ESE,9.2,-,0.00,Rain,Light Rain,120,2013-09-03 09:05:00
5:53 AM,66.9,64.9,93,29.91,10.0,Calm,Calm,-,0.00,,Overcast,0,2013-09-03 09:53:00
6:53 AM,68.0,64.9,90,29.91,10.0,Calm,Calm,-,0.01,,Scattered Clouds,0,2013-09-03 10:53:00
7:53 AM,66.9,66.0,97,29.93,10.0,WNW,4.6,-,N/A,,Mostly Cloudy,290,2013-09-03 11:53:00
8:14 AM,66.2,66.2,100,29.96,9.0,West,5.8,-,N/A,,Scattered Clouds,280,2013-09-03 12:14:00
8:53 AM,70.0,66.9,90,29.94,10.0,WNW,4.6,-,N/A,,Scattered Clouds,300,2013-09-03 12:53:00
9:53 AM,73.0,68.0,84,29.95,10.0,West,4.6,-,N/A,,Partly Cloudy,280,2013-09-03 13:53:00
10:53 AM,75.9,69.1,79,29.96,10.0,Calm,Calm,-,N/A,,Scattered Clouds,0,2013-09-03 14:53:00
11:20 AM,77.0,69.8,78,29.99,10.0,Calm,Calm,-,N/A,,Mostly Cloudy,0,2013-09-03 15:20:00
11:41 AM,78.8,69.8,74,29.99,10.0,Calm,Calm,-,N/A,,Mostly Cloudy,0,2013-09-03 15:41:00
11:53 AM,79.0,69.1,72,29.96,10.0,North,3.5,-,N/A,,Mostly Cloudy,360,2013-09-03 15:53:00
12:53 PM,80.1,69.1,69,29.95,10.0,Calm,Calm,-,N/A,,Mostly Cloudy,0,2013-09-03 16:53:00
1:14 PM,82.4,69.8,66,29.98,10.0,NE,8.1,-,N/A,,Partly Cloudy,40,2013-09-03 17:14:00
1:30 PM,82.4,69.8,66,29.97,10.0,Variable,3.5,-,N/A,,Mostly Cloudy,0,2013-09-03 17:30:00
1:53 PM,82.0,68.0,62,29.94,10.0,NE,5.8,-,N/A,,Mostly Cloudy,50,2013-09-03 17:53:00
2:53 PM,82.9,66.9,58,29.92,10.0,Variable,3.5,-,N/A,,Mostly Cloudy,0,2013-09-03 18:53:00
3:53 PM,84.9,68.0,57,29.90,10.0,Calm,Calm,-,N/A,,Scattered Clouds,0,2013-09-03 19:53:00
5:53 PM,84.9,66.9,55,29.90,10.0,North,5.8,-,N/A,,Scattered Clouds,360,2013-09-03 21:53:00
6:53 PM,82.0,66.0,58,29.91,10.0,North,9.2,-,N/A,,Partly Cloudy,360,2013-09-03 22:53:00
7:53 PM,79.0,64.0,60,29.93,10.0,North,8.1,-,N/A,,Mostly Cloudy,350,2013-09-03 23:53:00
8:53 PM,75.9,64.0,67,29.96,10.0,North,5.8,-,N/A,,Partly Cloudy,350,2013-09-04 00:53:00
9:53 PM,75.0,64.0,69,29.99,10.0,North,5.8,-,N/A,,Mostly Cloudy,10,2013-09-04 01:53:00
10:53 PM,73.0,64.0,73,30.00,10.0,NNE,5.8,-,N/A,,Scattered Clouds,30,2013-09-04 02:53:00
11:53 PM,71.1,64.0,78,30.01,10.0,Calm,Calm,-,N/A,,Partly Cloudy,0,2013-09-04 03:53:00